• In Schweiz
  • Länderverzeichnis
  • Für 7 Tage
  • Wassertemperatur
  • Satellitenkarten
  • Wetterkarte
  • Widgets
  • user-avatar
    Anmelden

    Stündliche Wetter Leicester

    Heute, 22 Mai, Dienstag

    Zeit Temperatur Niederschläge Wind Luftdruck Luftfeuchtigkeit
    00:00 +10°C° 0 mm 3 m/S 755 mmHg 92%
    01:00 +10°C° 0 mm 3 m/S 755 mmHg 92%
    02:00 +9°C° 0 mm 3 m/S 755 mmHg 92%
    03:00 +9°C° 0 mm 3 m/S 755 mmHg 92%
    04:00 +8°C° 0 mm 4 m/S 756 mmHg 91%
    05:00 +10°C° 0 mm 4 m/S 756 mmHg 89%
    06:00 +9°C° 0 mm 5 m/S 756 mmHg 88%
    07:00 +12°C° 0 mm 5 m/S 756 mmHg 84%
    08:00 +13°C° 0 mm 5 m/S 756 mmHg 80%
    09:00 +15°C° 0 mm 5 m/S 757 mmHg 77%
    10:00 +16°C° 0 mm 6 m/S 757 mmHg 75%
    11:00 +17°C° 0 mm 6 m/S 757 mmHg 73%
    12:00 +19°C° 0 mm 6 m/S 757 mmHg 70%
    13:00 +19°C° 0 mm 6 m/S 757 mmHg 70%
    14:00 +19°C° 0 mm 6 m/S 757 mmHg 69%
    15:00 +20°C° 0 mm 6 m/S 757 mmHg 69%
    16:00 +19°C° 0 mm 6 m/S 757 mmHg 71%
    17:00 +17°C° 0 mm 5 m/S 757 mmHg 74%
    18:00 +16°C° 0 mm 5 m/S 757 mmHg 77%
    19:00 +14°C° 0 mm 5 m/S 758 mmHg 80%
    20:00 +13°C° 0 mm 4 m/S 759 mmHg 84%
    21:00 +11°C° 0 mm 4 m/S 759 mmHg 88%
    22:00 +10°C° 0 mm 4 m/S 760 mmHg 89%
    23:00 +10°C° 0 mm 4 m/S 760 mmHg 91%

    Morgen, 23 Mai, Mittwoch

    Zeit Temperatur Niederschläge Wind Luftdruck Luftfeuchtigkeit
    00:00 +8°C° 0 mm 5 m/S 760 mmHg 93%
    01:00 +8°C° 0 mm 4 m/S 760 mmHg 93%
    02:00 +7°C° 0 mm 4 m/S 760 mmHg 94%
    03:00 +7°C° 0 mm 4 m/S 760 mmHg 94%
    04:00 +8°C° 0 mm 4 m/S 761 mmHg 93%
    05:00 +8°C° 0 mm 5 m/S 761 mmHg 91%
    06:00 +9°C° 0 mm 5 m/S 761 mmHg 90%
    07:00 +10°C° 0 mm 5 m/S 761 mmHg 86%
    08:00 +13°C° 0 mm 5 m/S 761 mmHg 83%
    09:00 +15°C° 0 mm 5 m/S 762 mmHg 79%
    10:00 +16°C° 0 mm 5 m/S 762 mmHg 76%
    11:00 +17°C° 0 mm 6 m/S 762 mmHg 73%
    12:00 +20°C° 0 mm 6 m/S 761 mmHg 70%
    13:00 +20°C° 0 mm 6 m/S 761 mmHg 69%
    14:00 +20°C° 0 mm 6 m/S 761 mmHg 68%
    15:00 +20°C° 0 mm 6 m/S 761 mmHg 68%
    16:00 +19°C° 0 mm 6 m/S 761 mmHg 71%
    17:00 +17°C° 0 mm 6 m/S 761 mmHg 73%
    18:00 +16°C° 0 mm 6 m/S 761 mmHg 76%
    19:00 +14°C° 0 mm 6 m/S 761 mmHg 79%
    20:00 +13°C° 0 mm 5 m/S 762 mmHg 82%
    21:00 +10°C° 0 mm 5 m/S 762 mmHg 84%
    22:00 +10°C° 0 mm 5 m/S 762 mmHg 85%
    23:00 +9°C° 0 mm 5 m/S 762 mmHg 87%

    übermorgen, 24 Mai, Donnerstag

    Zeit Temperatur Niederschläge Wind Luftdruck Luftfeuchtigkeit
    00:00 +9°C° 0 mm 5 m/S 762 mmHg 88%
    01:00 +9°C° 0 mm 5 m/S 761 mmHg 87%
    02:00 +9°C° 0 mm 5 m/S 761 mmHg 86%
    03:00 +9°C° 0 mm 6 m/S 761 mmHg 85%
    04:00 +10°C° 0 mm 6 m/S 761 mmHg 85%
    05:00 +10°C° 0 mm 6 m/S 761 mmHg 86%
    06:00 +10°C° 0 mm 6 m/S 760 mmHg 87%
    07:00 +11°C° 0,1 mm 6 m/S 760 mmHg 86%
    08:00 +14°C° 0,1 mm 6 m/S 760 mmHg 86%
    09:00 +15°C° 0,1 mm 6 m/S 760 mmHg 85%
    10:00 +16°C° 0,3 mm 5 m/S 760 mmHg 83%
    11:00 +17°C° 0,3 mm 5 m/S 760 mmHg 81%
    12:00 +19°C° 0,3 mm 5 m/S 760 mmHg 79%
    13:00 +17°C° 0,5 mm 5 m/S 760 mmHg 80%
    14:00 +17°C° 0,5 mm 5 m/S 759 mmHg 82%
    15:00 +16°C° 0,5 mm 5 m/S 759 mmHg 83%
    16:00 +15°C° 0,2 mm 5 m/S 759 mmHg 84%
    17:00 +14°C° 0,2 mm 5 m/S 759 mmHg 86%
    18:00 +13°C° 0,2 mm 5 m/S 759 mmHg 87%
    19:00 +13°C° 0,5 mm 5 m/S 759 mmHg 89%
    20:00 +12°C° 0,5 mm 5 m/S 759 mmHg 91%
    21:00 +12°C° 0,5 mm 5 m/S 759 mmHg 93%
    22:00 +12°C° 0,7 mm 5 m/S 759 mmHg 94%
    23:00 +10°C° 0,7 mm 5 m/S 759 mmHg 94%

    25 Mai, Freitag

    Zeit Temperatur Niederschläge Wind Luftdruck Luftfeuchtigkeit
    00:00 +10°C° 0,7 mm 5 m/S 758 mmHg 95%
    01:00 +10°C° 0,5 mm 5 m/S 758 mmHg 95%
    02:00 +10°C° 0,5 mm 5 m/S 758 mmHg 95%
    03:00 +11°C° 0,5 mm 4 m/S 758 mmHg 95%
    04:00 +11°C° 0,1 mm 4 m/S 758 mmHg 95%
    05:00 +11°C° 0,1 mm 4 m/S 757 mmHg 95%
    06:00 +11°C° 0,1 mm 4 m/S 757 mmHg 95%
    07:00 +12°C° 0 mm 4 m/S 757 mmHg 94%
    08:00 +13°C° 0 mm 4 m/S 758 mmHg 92%
    09:00 +14°C° 0 mm 4 m/S 758 mmHg 91%
    10:00 +15°C° 0 mm 4 m/S 758 mmHg 89%
    11:00 +16°C° 0 mm 3 m/S 757 mmHg 87%
    12:00 +17°C° 0 mm 3 m/S 757 mmHg 85%
    13:00 +18°C° 0 mm 3 m/S 757 mmHg 84%
    14:00 +18°C° 0 mm 2 m/S 757 mmHg 83%
    15:00 +19°C° 0 mm 2 m/S 757 mmHg 81%
    16:00 +19°C° 0,1 mm 2 m/S 757 mmHg 84%
    17:00 +18°C° 0,1 mm 3 m/S 757 mmHg 86%
    18:00 +18°C° 0,1 mm 3 m/S 757 mmHg 88%
    19:00 +17°C° 0,1 mm 3 m/S 757 mmHg 90%
    20:00 +16°C° 0,1 mm 3 m/S 758 mmHg 93%
    21:00 +16°C° 0,1 mm 3 m/S 758 mmHg 95%
    22:00 +14°C° 0 mm 3 m/S 758 mmHg 95%
    23:00 +14°C° 0 mm 3 m/S 758 mmHg 96%

    26 Mai, Samstag

    Zeit Temperatur Niederschläge Wind Luftdruck Luftfeuchtigkeit
    00:00 +14°C° 0 mm 3 m/S 758 mmHg 96%
    01:00 +13°C° 0 mm 3 m/S 758 mmHg 96%
    02:00 +13°C° 0 mm 3 m/S 758 mmHg 96%
    03:00 +13°C° 0 mm 3 m/S 758 mmHg 96%
    04:00 +13°C° 0 mm 3 m/S 758 mmHg 96%
    05:00 +13°C° 0 mm 3 m/S 758 mmHg 95%
    06:00 +13°C° 0 mm 3 m/S 758 mmHg 95%
    07:00 +14°C° 0 mm 3 m/S 758 mmHg 93%
    08:00 +14°C° 0 mm 3 m/S 758 mmHg 91%
    09:00 +16°C° 0 mm 3 m/S 758 mmHg 90%
    10:00 +17°C° 0,1 mm 3 m/S 758 mmHg 88%
    11:00 +17°C° 0,1 mm 4 m/S 758 mmHg 86%
    12:00 +18°C° 0,1 mm 4 m/S 758 mmHg 85%
    13:00 +19°C° 0,2 mm 4 m/S 758 mmHg 84%
    14:00 +19°C° 0,2 mm 4 m/S 758 mmHg 84%
    15:00 +20°C° 0,2 mm 4 m/S 758 mmHg 83%
    16:00 +20°C° 0,2 mm 4 m/S 758 mmHg 84%
    17:00 +20°C° 0,2 mm 4 m/S 758 mmHg 85%
    18:00 +19°C° 0,2 mm 4 m/S 758 mmHg 85%
    19:00 +18°C° 0 mm 4 m/S 758 mmHg 89%
    20:00 +17°C° 0 mm 4 m/S 758 mmHg 92%
    21:00 +16°C° 0 mm 3 m/S 758 mmHg 95%
    22:00 +14°C° 0 mm 3 m/S 758 mmHg 95%
    23:00 +14°C° 0 mm 3 m/S 758 mmHg 95%

    27 Mai, Sonntag

    Zeit Temperatur Niederschläge Wind Luftdruck Luftfeuchtigkeit
    00:00 +14°C° 0 mm 3 m/S 758 mmHg 95%
    01:00 +13°C° 0 mm 3 m/S 758 mmHg 95%
    02:00 +13°C° 0 mm 3 m/S 758 mmHg 95%
    03:00 +13°C° 0 mm 3 m/S 757 mmHg 95%
    04:00 +14°C° 0 mm 3 m/S 757 mmHg 95%
    05:00 +14°C° 0 mm 3 m/S 757 mmHg 95%
    06:00 +14°C° 0 mm 3 m/S 757 mmHg 94%
    07:00 +16°C° 0,1 mm 3 m/S 757 mmHg 93%
    08:00 +17°C° 0,1 mm 3 m/S 757 mmHg 92%
    09:00 +18°C° 0,1 mm 3 m/S 757 mmHg 91%
    10:00 +18°C° 0 mm 3 m/S 757 mmHg 90%
    11:00 +19°C° 0 mm 3 m/S 757 mmHg 89%
    12:00 +19°C° 0 mm 3 m/S 757 mmHg 89%
    13:00 +19°C° 0 mm 3 m/S 757 mmHg 88%
    14:00 +20°C° 0 mm 3 m/S 756 mmHg 88%
    15:00 +20°C° 0 mm 3 m/S 756 mmHg 87%
    16:00 +20°C° 0 mm 3 m/S 756 mmHg 88%
    17:00 +19°C° 0 mm 2 m/S 756 mmHg 89%
    18:00 +19°C° 0 mm 2 m/S 756 mmHg 90%
    19:00 +18°C° 0 mm 2 m/S 757 mmHg 92%
    20:00 +18°C° 0 mm 2 m/S 757 mmHg 94%
    21:00 +17°C° 0 mm 2 m/S 757 mmHg 96%
    22:00 +16°C° 0 mm 2 m/S 757 mmHg 96%
    23:00 +16°C° 0 mm 3 m/S 757 mmHg 96%
    Mehr zeigen